2014 CE13
ephemeris date magn radius delta ra dec elong phase
Today5 Sep 202626.51.086 AU2.062 AU10h15m+11°30'10.5°9.8°
2014 CE13 - 2026-09-05
astro.vanbuitenen.nl


 
-1 year
-1 month
-1 day
Now
+1 day
+1 month
+1 year

The interactive orbit chart above shows the body's path through the solar system and its position at the given date. Green and blue lines are shown perpendicular to the ecliptic plane: Green if the path is above the ecliptic plane, blue if it is below. (Left-click and drag to rotate the view; Right-click and drag to move the view; Use scroll wheel to zoom in our out.)

The orbital elements of 2014 CE13 are:

            e (Eccentricity)                : 0.5716307
            a (Semimajor axis)              : 0.8512818
            i (Inclination)                 : 5.47361
            Ω (Longitude of ascending node) : 334.75129
            ω (Argument of perihelion)      : 312.75375
            M (Mean anomaly)                : 159.40778
            Epoch                           : 2026 Jun 09

            L (Longitude of perihelion)     : 287.63559
            B (Latitude of perihelion)      : -4.01633
            P (Orbital period in years)     : 0.79            
        

The light curve chart below shows the estimated development of the minor planet's magnitude.


The all-sky chart below shows the path of the minor planet over the same period as the light curve. The current position is marked yellow.





The following chart shows the path of the minor planet in the next few days. The field of view is optimized for (~10x50) binoculars and finderscopes.




Ephemerides:
Date       Time       RA (2000)    DEC (2000)    delta   radius  elong  phase   PA    magn
2026-09-05 00:00 UT   10 15 21.2   +11 30 48     2.062    1.086   10.5    9.8   294   26.5 
2026-09-05 12:12 UT   10 16 55.9   +11 20 51     2.057    1.082   10.6    9.9   294   26.5 
2026-09-06 00:00 UT   10 18 27.9   +11 11 08     2.053    1.079   10.7   10.0   294   26.5 
2026-09-07 00:00 UT   10 21 35.6   +10 51 11     2.045    1.071   10.8   10.2   294   26.4 
2026-09-08 00:00 UT   10 24 44.6   +10 30 57     2.036    1.064   10.9   10.3   294   26.4 
2026-09-09 00:00 UT   10 27 54.7   +10 10 26     2.027    1.056   11.0   10.5   294   26.4 
2026-09-10 00:00 UT   10 31 06.0   +09 49 37     2.018    1.048   11.2   10.7   294   26.4 
2026-09-11 00:00 UT   10 34 18.6   +09 28 30     2.009    1.040   11.3   10.9   294   26.4 
2026-09-12 00:00 UT   10 37 32.5   +09 07 06     2.000    1.032   11.4   11.1   294   26.4 
2026-09-13 00:00 UT   10 40 47.8   +08 45 23     1.990    1.024   11.4   11.3   294   26.3 
2026-09-14 00:00 UT   10 44 04.5   +08 23 22     1.981    1.015   11.5   11.4   294   26.3 


    Terminology:
            
    delta:  distance between minor planet and earth in AU
    radius: distance between minor planet and sun in AU
    magn:   magnitude (brightness) estimate    
    ra:     right ascension in hours (24h = 360deg)
    dec:    declination in degrees
    elong:  elongation in degrees (angle sun-earth-minor planet)    
    phase:  phase angle in degrees (angle sun-minor planet-earth)        
    AU:     Astronomical Unit (mean distance between earth and sun: 149597870.7 km
    

Orbital elements provided by the MPC (Minor Planet Center).
Calculations by a modified version of AAPlus, a C# implementation of the AA+ project by PJ Naughter from the algorithms presented in the book "Astronomical Algorithms" by Jean Meeus.
NGC2000 dso catalog and star labels from VizieR as provided by the Strasbourg astronomical Data Center.
Tycho2 catalog from the ESO archive.